Showing default

METEOR 2-6, 11962

Orbit data source: Space-Track

METEOR 2-6, 11962 is a Commonwealth of Independent States-origin payload satellite in LEO that was launched on Tue, 09 Sep 1980 UTC via a VOSTOK 8A92M launch vehicle from the Plesetsk Missile And Space Complex (PKMTR). Payload-class satellites include a variety of spacecraft equipped with specific instruments for various scientific and technological missions. These include communications satellites like Starlink; space stations such as the ISS; scientific satellites like the Hubble; Earth observation satellites from companies like Planet Labs, Umbra, and HawkEye 360; GPS; miniature CubeSats for education and research; and military/defense satellites.

Loading next visibility...
Identifier
11962, 1980-073A
Orbit
LEO
Country
Flag of CISCIS
Related business
Manufacturer
VNIIEM
Mission
Spacecraft
Bus & Motor
METEOR-2, Unknown motor
Mass
~1,500 kg wet, ~1,500 kg dry
Launch date (UTC)
1980-09-09 (46 years ago)
Launch vehicle
VOSTOK 8A92M
Launch site
Plesetsk Missile And Space Complex (PKMTR)
Object type
Payload
Rocket body
Debris
Shape & HBR
CYL + 2 PAN, 1.1 m
Radar Cross Section
Large (>1 m²)

Expand to show TLE details & history
Last TLE update: 12 hours ago

TLE from 12 hours ago
0 METEOR 2-6
1 11962U 80073A   26267.19018277  .00000053  00000-0  22638-4 0  9998
2 11962  81.2264 353.0707 0035035 216.9038 142.9723 14.11159228368698
Epoch: 2026-09-24T04:33Z
TLE epoch observation values (Epoch: 2026-09-24T04:33:51.791Z)
Latitude
0.00001°
Longitude
-78.42561°
Altitude
878.576 km
Speed
7.403 km/s
True Right ascension
23h 32m 16s
True Declination
0° 00' 00"
Sunlit
Object was in full shadow at epoch
Visualization orbit readout
Latitude
Unknown
Longitude
Unknown
Altitude
Unknown
Speed
Unknown
Apparent Right ascension
Unknown
Apparent Declination
Unknown
Sunlit
N/A
Visualization observer readout
Local Sidereal Time
10:09:12
Azimuth
Unknown
Elevation
Unknown
Doppler factor
Unknown
Orbital elements
Apogee altitude
877.914 km
Perigee altitude
827.248 km
Semi-major axis
7,230.718 km
Eccentricity
0.0035
Inclination
81.2264°
RAAN
353.0707°
Arg. of periapsis
216.9038°
True anomaly
143.21322°
Mean anomaly
142.9723°
Eccentric anomaly
143.09285°
Mean motion
3.52997 °/min
Orbital period
101.98 mins
BSTAR
0.000022638
Loading maneuver chart data...
Computing Atmospheric mass density...
Loading historical data...
Loading historical data...
Loading historical data...
Loading historical data...
Loading historical data...
Loading historical data...
Loading historical data...

Documentation

Showing up to 5 results
|